K5TCS Weather Reports


Display with metric or nautical units.
time (UTC)temp
F
wind
direction
speed
MPH
gust
MPH
rain 1hr
in
rain 24hr
in
rain mn
in
humidity
%
barometer
mb
20260508135017 53 270 1.0 4.0 0.00 0.00 0.00 43 1022.8
20260508134017 51 270 1.0 4.0 0.00 0.00 0.00 44 1023.7
20260508133017 48 270 1.0 4.0 0.00 0.00 0.00 47 1023.1
20260508132017 45 270 1.0 3.0 0.00 0.00 0.00 50 1022.0
20260508131017 43 270 1.0 4.0 0.00 0.00 0.00 51 1021.9
20260508130017 42 270 1.0 3.0 0.00 0.00 0.00 52 1021.9
20260508125017 42 248 1.0 4.0 0.00 0.00 0.00 53 1021.8
20260508124017 39 248 1.0 4.0 0.00 0.00 0.00 57 1021.2
20260508123017 38 248 1.0 4.0 0.00 0.00 0.00 58 1021.1
20260508122017 37 248 2.0 4.0 0.00 0.00 0.00 59 1020.7
20260508121017 37 248 1.0 4.0 0.00 0.00 0.00 60 1021.2
20260508120037 38 248 2.0 5.0 0.00 0.00 0.00 58 1021.6
20260508115017 41 248 1.0 4.0 0.00 0.00 0.00 53 1022.1
20260508114017 41 248 1.0 4.0 0.00 0.00 0.00 53 1022.3
20260508113017 40 0.0 4.0 0.00 0.00 0.00 54 1021.9
20260508112037 40 248 1.0 5.0 0.00 0.00 0.00 55 1021.9
20260508111017 38 203 1.0 3.0 0.00 0.00 0.00 59 1021.7
20260508110017 37 203 2.0 4.0 0.00 0.00 0.00 60 1021.7
20260508105017 37 180 1.0 4.0 0.00 0.00 0.00 59 1021.6
20260508104016 37 0.0 3.0 0.00 0.00 0.00 59 1021.8
20260508103016 37 180 1.0 4.0 0.00 0.00 0.00 59 1021.6
20260508102016 38 0.0 2.0 0.00 0.00 0.00 58 1021.6
20260508101016 37 0.0 0.0 0.00 0.00 0.00 59 1021.6
20260508100016 37 0.0 0.0 0.00 0.00 0.00 59 1021.6
20260508095016 37 0.0 0.0 0.00 0.00 0.00 58 1021.8
20260508094016 38 0.0 0.0 0.00 0.00 0.00 58 1021.9
20260508093016 38 0.0 0.0 0.00 0.00 0.00 58 1021.9
20260508092017 38 0.0 0.0 0.00 0.00 0.00 58 1021.4
20260508091017 38 0.0 2.0 0.00 0.00 0.00 58 1021.4
20260508090016 38 248 2.0 5.0 0.00 0.00 0.00 57 1021.5
20260508085016 39 203 2.0 5.0 0.00 0.00 0.00 57 1022.1
20260508084016 39 203 2.0 5.0 0.00 0.00 0.00 55 1022.0
20260508083016 39 203 1.0 4.0 0.00 0.00 0.00 55 1021.9
20260508082056 39 203 1.0 5.0 0.00 0.00 0.00 56 1022.0
20260508081016 39 203 1.0 6.0 0.00 0.00 0.00 56 1022.1
20260508080036 39 203 1.0 4.0 0.00 0.00 0.00 55 1022.0
20260508075016 40 0.0 3.0 0.00 0.00 0.00 54 1022.3
20260508074016 40 203 2.0 5.0 0.00 0.00 0.00 55 1022.5
20260508073016 40 225 1.0 3.0 0.00 0.00 0.00 55 1022.5
20260508072036 40 225 2.0 4.0 0.00 0.00 0.00 55 1022.6
20260508071016 41 225 1.0 4.0 0.00 0.00 0.00 53 1022.9
20260508070016 42 248 1.0 6.0 0.00 0.00 0.00 51 1022.8
20260508065016 42 225 1.0 6.0 0.00 0.00 0.00 52 1022.9
20260508064016 42 203 1.0 3.0 0.00 0.00 0.00 51 1023.0
20260508063036 42 203 1.0 3.0 0.00 0.00 0.00 52 1022.6
20260508062036 42 203 1.0 4.0 0.00 0.00 0.00 51 1023.0
20260508061016 42 203 2.0 4.0 0.00 0.00 0.00 51 1022.6
20260508060016 43 203 2.0 5.0 0.00 0.00 0.00 49 1022.7
20260508055015 46 248 2.0 7.0 0.00 0.00 0.00 44 1023.4
20260508054017 47 248 4.0 9.0 0.00 0.00 0.00 43 1023.2
20260508053057 47 270 2.0 7.0 0.00 0.00 0.00 44 1023.1
20260508052018 45 270 2.0 9.0 0.00 0.00 0.00 46 1022.7
20260508051017 45 270 1.0 4.0 0.00 0.00 0.00 46 1022.2
20260508050017 47 270 2.0 7.0 0.00 0.00 0.00 44 1022.8
20260508045017 48 270 3.0 6.0 0.00 0.00 0.00 44 1023.2
20260508044017 48 270 2.0 6.0 0.00 0.00 0.00 43 1022.6
20260508043017 46 270 1.0 6.0 0.00 0.00 0.00 44 1022.3
20260508042017 48 0.0 3.0 0.00 0.00 0.00 41 1022.8
20260508041017 50 0.0 3.0 0.00 0.00 0.00 37 1022.8
20260508040037 50 0.0 1.0 0.00 0.00 0.00 36 1022.7
20260508035018 51 0.0 0.0 0.00 0.00 0.00 35 1023.1
20260508034017 52 0.0 1.0 0.00 0.00 0.00 34 1022.3
20260508033017 53 0.0 1.0 0.00 0.00 0.00 34 1022.2
20260508032017 52 0.0 3.0 0.00 0.00 0.00 34 1022.2
20260508031017 51 0.0 2.0 0.00 0.00 0.00 34 1020.7
20260508030017 53 0.0 1.0 0.00 0.00 0.00 33 1021.2
20260508025017 55 0.0 0.0 0.00 0.00 0.00 31 1021.7
20260508024017 56 0.0 0.0 0.00 0.00 0.00 29 1021.3
20260508023017 57 0.0 2.0 0.00 0.00 0.00 30 1021.2
20260508022017 57 0.0 2.0 0.00 0.00 0.00 29 1021.1
20260508021017 58 270 1.0 3.0 0.00 0.00 0.00 29 1021.0
20260508020017 58 0.0 3.0 0.00 0.00 0.00 28 1020.8
20260508015017 59 270 1.0 3.0 0.00 0.00 0.00 27 1021.2
20260508014017 61 248 1.0 4.0 0.00 0.00 0.00 27 1020.3
20260508013017 63 225 2.0 8.0 0.00 0.00 0.00 27 1020.5
20260508012017 64 203 2.0 7.0 0.00 0.00 0.00 26 1020.9
20260508011017 64 203 4.0 13.0 0.00 0.00 0.00 26 1019.4
20260508010017 65 203 6.0 14.0 0.00 0.00 0.00 25 1019.2
20260508005017 66 203 5.0 12.0 0.00 0.00 0.00 25 1019.7
20260508004017 67 203 4.0 13.0 0.00 0.00 0.00 24 1018.6
20260508003017 67 248 8.0 17.0 0.00 0.00 0.00 24 1018.7
20260508002016 68 203 4.0 12.0 0.00 0.00 0.00 24 1018.9
20260508001016 70 225 4.0 13.0 0.00 0.00 0.00 25 1019.9
20260508000017 69 203 6.0 16.0 0.00 0.00 0.00 24 1019.1
20260507235016 70 203 5.0 12.0 0.00 0.00 0.00 22 1019.5
20260507234016 69 68 5.0 13.0 0.00 0.00 0.00 25 1018.8
20260507233036 68 90 3.0 7.0 0.00 0.00 0.00 30 1018.4
20260507232016 69 113 3.0 10.0 0.00 0.00 0.00 32 1019.1
20260507231016 69 45 3.0 12.0 0.00 0.00 0.00 32 1018.9
20260507230037 70 45 3.0 12.0 0.00 0.00 0.00 33 1019.3
20260507225016 70 113 2.0 7.0 0.00 0.00 0.00 30 1019.7
20260507224016 72 270 3.0 11.0 0.00 0.00 0.00 22 1020.1
20260507223016 71 315 3.0 6.0 0.00 0.00 0.00 23 1019.8
20260507222016 70 113 3.0 10.0 0.00 0.00 0.00 28 1019.5
20260507221017 69 113 2.0 11.0 0.00 0.00 0.00 34 1019.9
20260507220036 69 113 5.0 12.0 0.00 0.00 0.00 34 1020.2
20260507215016 70 135 3.0 7.0 0.00 0.00 0.00 34 1020.4
20260507214017 68 113 3.0 14.0 0.00 0.00 0.00 33 1020.5
20260507213016 67 0 4.0 13.0 0.00 0.00 0.00 37 1020.5
20260507212016 68 68 4.0 16.0 0.00 0.00 0.00 36 1020.9
20260507211016 68 68 6.0 17.0 0.00 0.00 0.00 37 1020.7
20260507210016 68 68 5.0 15.0 0.00 0.00 0.00 34 1020.5
20260507205016 67 45 5.0 15.0 0.00 0.00 0.00 38 1020.3
20260507204037 67 45 8.0 21.0 0.00 0.00 0.00 38 1021.9
20260507203016 68 45 6.0 17.0 0.00 0.00 0.00 37 1022.1
20260507202016 67 68 5.0 14.0 0.00 0.00 0.00 39 1022.2
20260507201016 68 90 4.0 14.0 0.00 0.00 0.00 37 1022.3
20260507200016 68 45 6.0 15.0 0.00 0.00 0.00 36 1022.4
20260507195016 67 68 5.0 14.0 0.00 0.00 0.00 37 1022.8
20260507194016 68 135 3.0 11.0 0.00 0.00 0.00 32 1023.6
20260507193016 68 113 3.0 7.0 0.00 0.00 0.00 33 1023.7
20260507192016 67 135 3.0 10.0 0.00 0.00 0.00 34 1023.3
20260507191016 66 113 4.0 13.0 0.00 0.00 0.00 33 1023.4
20260507190016 68 158 3.0 11.0 0.00 0.00 0.00 33 1024.2
20260507185016 67 135 3.0 10.0 0.00 0.00 0.00 33 1024.3
20260507184016 67 113 3.0 16.0 0.00 0.00 0.00 33 1024.5
20260507183016 65 113 5.0 14.0 0.00 0.00 0.00 38 1024.2
20260507182017 66 113 3.0 13.0 0.00 0.00 0.00 38 1024.8
20260507181016 64 90 4.0 9.0 0.00 0.00 0.00 38 1024.8
20260507180016 64 90 3.0 7.0 0.00 0.00 0.00 39 1025.0
20260507175016 64 113 2.0 13.0 0.00 0.00 0.00 35 1025.0
20260507174016 63 135 3.0 9.0 0.00 0.00 0.00 37 1024.6
20260507173016 63 135 3.0 10.0 0.00 0.00 0.00 38 1024.6
20260507172016 62 135 3.0 6.0 0.00 0.00 0.00 37 1024.5
20260507171016 62 135 2.0 7.0 0.00 0.00 0.00 40 1024.2
20260507170015 60 113 3.0 11.0 0.00 0.00 0.00 43 1023.8
20260507165015 60 90 2.0 5.0 0.00 0.00 0.00 44 1023.9
20260507164015 60 68 2.0 9.0 0.00 0.00 0.00 46 1024.4
20260507163018 60 68 2.0 9.0 0.00 0.00 0.00 45 1024.4
20260507162017 59 90 2.0 6.0 0.00 0.00 0.00 46 1024.7
20260507161038 60 90 1.0 5.0 0.00 0.00 0.00 44 1024.7
20260507160037 59 90 1.0 4.0 0.00 0.00 0.00 43 1025.0
20260507155017 58 45 1.0 4.0 0.00 0.00 0.00 43 1024.4
20260507154038 56 0.0 3.0 0.00 0.00 0.00 46 1024.9
20260507153017 54 0.0 3.0 0.00 0.00 0.00 48 1024.5
20260507152017 54 0.0 4.0 0.00 0.00 0.00 49 1024.8
20260507151017 54 0.0 3.0 0.00 0.00 0.00 49 1025.7
20260507150017 52 0.0 1.0 0.00 0.00 0.00 50 1025.3
20260507145017 50 0.0 2.0 0.00 0.00 0.00 52 1024.9
20260507144017 50 0.0 4.0 0.00 0.00 0.00 53 1025.6
20260507143017 49 90 1.0 5.0 0.00 0.00 0.00 53 1025.5
20260507142017 48 0.0 2.0 0.00 0.00 0.00 54 1025.3
20260507141017 47 68 1.0 4.0 0.00 0.00 0.00 53 1025.9
20260507140017 47 45 1.0 5.0 0.00 0.00 0.00 51 1025.7